Theta_e
311 316 317 316 316 313 314 315 315 314 312 315 316 317 316 316 316 315 315 316 316 316 315 312 311 309 309 310 310 311 311 312 314 314 315 315 317 323 324 325 326 326 327 331
314 315 316 312 312 313 314 316 316 315 312 313 316 316 316 316 316 316 317 317 317 317 316 313 310 309 308 309 309 310 311 312 313 313 314 314 313 320 322 324 325 324 327 329
314 314 312 312 312 314 314 316 315 315 313 312 314 316 317 316 314 314 315 315 316 316 316 316 311 309 308 308 309 309 310 311 312 313 313 309 313 316 318 319 322 324 324 326
314 312 312 312 313 314 315 313 314 314 315 316 313 314 315 315 315 314 315 316 316 315 315 314 313 309 308 308 308 308 309 310 311 312 310 310 313 313 313 318 321 321 321 323
314 313 313 314 314 313 315 311 313 313 316 316 316 316 314 313 314 315 316 316 317 316 315 314 312 310 309 307 307 308 308 309 310 311 310 311 313 314 314 317 319 317 318 320
312 309 312 314 310 311 311 314 314 315 317 317 315 316 314 314 315 315 315 315 316 315 314 312 310 308 307 306 306 307 308 308 309 309 310 310 312 313 309 313 313 313 314 314
313 313 311 311 313 311 313 316 316 319 321 318 314 316 315 314 313 313 315 315 314 312 312 312 311 307 305 304 305 306 307 307 308 308 309 310 311 310 309 309 309 310 309 309
314 313 313 312 314 315 314 316 316 320 318 314 311 316 316 315 313 312 312 313 313 310 312 312 312 309 306 304 305 306 306 307 307 306 308 308 310 308 308 308 307 307 310 314
312 313 310 310 311 313 314 315 314 315 308 314 313 314 314 313 312 312 313 314 315 313 312 312 311 308 305 304 305 305 305 305 306 305 307 307 307 306 306 306 306 306 309 310
312 312 310 310 311 311 313 313 316 315 322 319 313 314 315 315 315 316 313 313 314 313 313 312 310 307 304 304 304 304 305 305 305 304 305 305 303 304 306 306 304 305 306 306
313 313 313 311 313 314 313 314 314 314 316 318 317 314 314 315 315 314 314 313 314 313 312 311 309 305 303 303 303 304 304 304 304 303 304 303 302 304 305 304 303 302 303 305
313 314 316 314 311 310 312 314 314 316 318 315 316 317 311 313 314 313 314 312 312 311 310 308 307 304 303 302 303 303 304 304 304 302 303 302 301 300 302 302 302 300 302 302
313 316 321 319 314 310 312 313 312 314 314 321 321 317 312 312 312 313 313 313 312 310 310 308 305 305 304 303 303 303 303 303 302 302 301 300 300 299 299 299 300 299 298 298
313 316 319 322 319 315 314 313 313 314 317 317 317 316 315 315 314 313 313 313 312 312 311 310 308 307 305 303 302 302 302 302 301 300 300 300 299 298 300 299 298 297 296 295
315 317 317 318 318 314 315 315 314 314 315 317 317 317 316 315 315 314 314 313 314 312 311 309 309 308 306 302 301 300 301 301 300 299 298 299 298 297 298 297 296 295 294 294
312 315 316 318 318 318 318 316 314 314 315 315 315 316 316 315 315 315 313 313 313 313 313 313 309 307 305 304 301 300 300 300 299 298 297 298 297 294 295 295 294 293 292 290
313 314 314 317 317 318 319 318 318 317 315 316 317 316 316 316 315 315 314 313 312 313 313 313 311 310 308 306 304 301 300 299 297 296 296 296 294 293 293 292 292 290 289 288
309 311 312 318 317 319 318 316 316 317 317 316 314 315 316 316 315 314 314 313 313 313 311 311 311 310 309 305 304 300 299 297 295 294 294 294 292 291 291 290 289 288 287 286
308 309 312 314 316 314 314 316 316 317 318 316 316 316 315 315 314 314 313 313 312 312 312 310 308 306 304 303 301 298 296 295 293 293 293 292 291 290 289 288 287 286 285 284
307 309 310 312 313 312 310 311 310 313 318 315 316 316 316 315 317 317 312 307 308 306 303 302 301 300 300 301 299 296 293 292 291 291 292 291 290 290 288 288 287 286 285 284
308 307 310 310 312 312 310 309 309 316 316 306 311 314 314 314 314 314 305 305 302 300 298 297 297 297 296 294 294 292 291 290 291 290 290 289 289 289 288 287 286 285 283 282
304 307 309 312 313 314 306 308 315 309 307 305 305 306 308 308 306 305 302 301 300 298 296 294 293 292 290 290 291 290 289 289 289 289 288 288 287 287 286 285 284 284 282 282
304 305 307 308 308 310 308 309 308 306 304 306 307 305 302 303 303 302 301 299 297 295 293 290 289 288 288 288 289 289 288 287 287 287 286 286 285 285 285 284 283 283 282 282
305 304 306 305 306 306 306 306 307 303 304 305 303 300 300 301 301 300 298 296 294 290 289 287 287 286 286 286 287 287 286 286 286 285 285 284 285 284 284 284 284 284 283 283
299 301 303 304 303 303 303 303 303 301 301 300 298 297 298 298 299 298 295 292 290 288 287 286 286 285 285 285 286 286 286 286 285 285 285 285 285 285 285 284 284 284 284 285
300 301 300 301 300 301 303 301 297 297 298 298 297 297 294 293 294 292 291 289 288 288 286 285 284 284 283 285 286 286 286 286 286 285 285 285 285 285 285 284 284 285 285 287
Wind_Speed
2 5 9 15 9 1 3 2 5 3 1 4 12 19 18 17 16 18 18 19 18 20 21 20 23 25 25 26 26 28 27 26 24 22 20 17 28 31 31 29 29 29 30 31
4 9 13 6 7 5 5 9 12 7 2 5 12 22 19 19 22 19 20 21 21 21 18 19 20 23 28 30 30 29 30 28 29 24 23 16 20 30 30 29 29 30 31 34
12 4 6 8 7 9 9 12 9 9 1 7 10 16 15 10 15 17 21 23 23 24 23 17 18 24 25 30 32 34 31 29 27 24 20 18 22 24 27 30 31 31 33 36
8 3 5 8 9 12 14 12 9 6 4 6 2 10 18 17 17 15 17 17 20 20 19 16 16 20 27 32 30 29 29 29 28 27 25 26 29 24 25 33 31 31 31 34
6 10 12 11 8 13 3 5 7 2 5 5 9 7 8 4 13 16 19 19 19 17 14 13 16 23 26 25 29 29 28 29 29 31 28 28 25 25 25 30 32 32 32 33
1 2 5 4 3 4 12 7 5 3 1 8 10 10 10 11 8 5 6 9 10 10 9 9 9 9 13 15 21 25 29 30 30 31 32 31 30 26 22 32 34 34 32 33
5 8 3 3 6 4 4 8 3 5 5 10 3 6 15 7 11 10 12 17 5 3 5 5 5 8 11 15 18 21 26 29 30 30 31 31 30 29 27 29 32 37 34 34
11 11 13 10 15 9 12 10 7 7 5 8 2 10 8 10 10 14 14 18 11 9 7 8 7 7 11 13 17 20 23 25 28 29 29 27 27 27 26 28 27 34 37 41
8 7 1 3 4 13 7 11 10 7 0 4 10 20 21 15 16 16 18 14 14 10 10 11 9 11 10 12 16 20 21 22 25 29 29 29 29 28 28 30 30 31 36 39
3 7 1 3 2 0 10 7 5 5 6 10 14 15 15 6 11 10 7 10 12 11 10 9 7 7 7 11 14 16 18 21 22 26 29 29 29 28 32 34 32 34 35 37
9 4 3 4 10 13 6 12 5 3 5 6 9 12 11 14 9 7 7 6 7 7 5 6 4 4 6 9 12 15 18 20 22 24 27 28 28 34 35 35 31 33 35 37
8 1 8 13 0 5 10 19 22 8 8 5 8 15 2 5 4 6 8 6 4 5 3 2 3 4 8 11 14 16 18 20 22 24 26 28 28 30 35 36 34 33 37 38
8 5 4 6 3 2 8 12 12 21 1 12 12 13 1 7 11 2 5 4 5 5 6 4 5 8 11 14 16 16 19 20 20 23 26 28 29 30 33 35 36 34 36 39
3 6 10 15 12 3 8 17 19 18 9 20 19 27 28 16 9 10 11 8 6 7 7 8 7 9 13 15 13 15 20 20 20 23 26 29 31 31 36 37 37 38 38 39
2 6 16 25 23 11 8 11 22 22 28 22 29 26 35 26 21 21 20 22 16 15 12 12 12 12 16 15 15 20 22 20 21 24 27 31 28 28 34 36 38 38 38 40
6 4 3 19 24 19 22 16 14 24 28 24 30 29 33 27 22 19 18 14 15 16 18 17 11 12 14 19 22 22 23 24 24 26 30 27 28 30 35 37 38 38 39 39
3 6 4 14 17 14 16 25 26 23 23 23 23 32 26 24 21 19 19 16 20 21 21 19 15 12 14 18 21 19 22 20 27 28 28 31 30 33 35 36 37 38 38 39
7 2 1 7 2 14 7 17 23 26 28 26 22 25 28 26 21 12 15 17 19 18 16 16 15 17 17 16 18 17 19 23 27 27 28 30 31 31 32 34 36 35 34 36
19 12 8 8 11 15 17 9 6 10 22 23 25 30 31 29 16 26 23 19 21 19 16 12 15 15 15 13 13 14 18 21 23 24 26 29 31 29 29 30 30 31 31 32
20 20 15 16 18 23 19 17 4 3 11 21 18 26 26 22 11 19 4 4 8 5 5 7 10 13 13 13 11 13 16 18 19 20 22 23 27 29 29 29 28 31 31 30
4 6 17 18 14 11 13 24 4 7 10 8 6 17 19 12 13 11 3 3 3 5 10 12 12 13 12 12 9 11 12 16 18 19 20 22 25 28 27 26 25 25 25 25
11 8 7 7 9 9 3 4 9 2 6 11 15 8 9 8 8 5 4 5 6 7 7 7 9 9 9 6 4 6 7 8 11 14 17 19 21 21 22 24 23 23 26 24
16 12 10 9 9 3 4 5 7 5 5 16 15 17 8 9 5 5 3 4 6 6 8 5 4 2 5 4 2 3 5 10 13 14 15 17 18 20 23 25 24 21 23 23
4 5 6 5 5 11 9 9 9 5 13 16 12 8 5 10 6 7 5 3 3 4 5 3 1 3 5 5 3 3 8 11 14 15 15 17 18 17 19 20 22 21 21 20
9 6 5 8 11 12 13 8 6 8 10 10 6 7 9 8 11 9 4 1 1 3 2 1 4 6 6 9 13 10 10 13 15 17 18 17 17 17 16 16 19 20 24 28
11 12 7 8 13 13 15 6 3 6 8 8 9 7 4 6 9 2 1 1 5 6 7 8 8 8 9 13 13 11 10 12 15 17 15 15 17 17 17 17 14 11 14 16
Wind_Direction
44 204 214 227 222 234 124 209 247 236 146 261 255 266 266 271 268 260 259 257 253 250 246 234 223 215 211 212 210 211 209 209 203 202 201 208 210 214 214 214 216 219 221 216
163 226 232 108 169 190 215 253 257 279 200 231 278 277 276 265 259 255 258 256 252 253 245 232 220 214 211 212 212 211 212 207 205 205 203 210 202 209 213 211 213 217 217 212
215 187 162 177 177 201 225 235 248 264 323 236 291 272 262 259 257 261 257 255 258 253 253 242 219 216 214 214 211 211 210 208 207 203 199 202 202 208 207 209 209 213 211 211
244 189 171 183 212 202 241 213 235 255 285 272 272 288 280 276 264 248 258 250 250 249 250 250 233 217 215 218 215 213 210 208 207 202 202 203 201 200 205 208 207 209 211 211
203 181 196 214 221 190 237 131 180 179 242 306 213 256 260 263 269 256 250 254 256 258 254 242 231 229 223 216 210 212 210 208 206 203 207 205 204 208 213 208 205 204 200 201
285 10 192 201 96 182 139 96 78 83 242 264 243 230 261 253 248 276 260 259 261 267 255 249 255 242 233 222 211 207 208 212 209 206 207 207 204 201 197 202 203 204 203 200
184 215 175 175 116 92 209 170 207 223 198 249 82 238 250 262 260 242 273 288 293 243 249 244 223 211 210 206 212 214 206 210 211 212 211 210 209 205 203 196 200 201 200 200
210 233 185 183 214 180 197 200 212 229 214 262 110 239 259 233 274 283 272 267 276 263 240 246 228 217 213 205 204 207 213 211 210 212 213 212 210 209 209 204 200 203 206 208
192 241 187 219 179 182 179 217 249 267 137 293 250 264 273 239 257 240 256 266 276 266 240 249 240 221 205 204 209 208 210 214 212 212 210 208 205 206 206 211 211 211 211 210
221 256 175 147 159 205 213 152 190 213 227 236 252 259 256 279 294 272 254 268 283 266 250 244 245 233 212 210 204 208 213 216 215 214 211 209 208 207 213 217 213 214 214 213
221 245 140 163 205 182 185 215 218 235 220 245 258 255 259 256 261 281 303 305 305 309 258 222 224 205 218 220 221 209 209 211 211 212 212 210 205 208 213 214 213 215 216 214
207 253 252 233 193 248 237 226 210 215 211 244 267 263 162 255 246 305 320 298 285 310 292 289 260 231 219 222 220 218 215 211 213 209 209 211 207 204 208 212 214 214 215 214
176 178 240 259 213 210 228 215 222 227 45 224 227 253 132 263 266 300 284 295 276 277 279 254 224 227 225 228 223 219 225 214 209 209 208 207 207 206 208 211 215 215 213 212
351 185 222 238 245 119 208 225 214 205 220 236 236 250 259 241 259 261 265 264 262 263 249 248 240 237 237 236 233 232 229 220 210 208 210 210 207 206 210 214 215 216 214 212
297 236 235 247 257 255 249 220 215 215 226 223 246 240 257 257 257 260 277 285 285 270 264 244 236 235 232 230 234 235 232 219 210 210 212 212 209 208 208 212 215 216 215 215
208 244 272 254 256 251 255 257 239 220 230 239 245 254 251 262 262 263 262 265 271 270 274 274 243 236 225 230 229 230 231 222 211 212 214 211 207 201 205 211 212 214 213 210
224 182 210 263 260 256 243 239 242 246 240 237 239 244 263 266 261 261 265 255 254 260 266 272 274 268 256 249 248 236 238 220 210 210 211 207 202 200 202 205 208 209 206 205
228 236 234 249 258 254 250 251 237 240 245 243 246 255 256 257 271 269 247 258 265 264 263 266 272 279 279 271 266 254 236 218 211 210 210 209 204 201 200 201 203 203 202 201
209 230 253 255 252 280 285 273 208 218 251 246 245 251 257 265 284 275 262 249 256 265 271 269 272 277 278 271 273 255 232 217 209 209 208 206 203 196 194 194 194 194 194 197
224 224 226 240 250 259 253 249 213 204 259 257 236 244 253 260 247 261 253 198 238 257 286 298 293 287 283 285 269 231 219 206 208 208 208 204 200 196 193 193 191 197 198 193
174 217 226 236 249 253 259 272 149 229 288 339 259 230 250 246 232 272 26 319 321 324 311 309 301 292 298 294 260 227 213 208 215 213 206 205 204 202 199 192 186 184 180 181
260 255 247 236 234 248 18 134 225 13 339 339 315 295 281 275 308 294 307 284 303 313 322 321 313 317 325 312 233 208 212 222 210 199 195 195 194 188 184 178 172 170 170 162
242 233 251 245 258 165 227 245 253 195 275 290 289 292 280 281 275 284 270 290 302 317 313 309 287 305 354 360 298 201 184 171 169 171 174 176 173 173 172 167 158 156 164 167
289 265 252 328 259 283 288 274 256 276 236 237 246 274 281 275 275 278 284 266 287 326 311 310 246 90 72 55 65 133 146 155 155 150 151 156 153 149 160 162 163 162 168 170
267 292 254 269 269 278 273 255 246 255 269 274 253 240 254 271 267 256 261 294 303 282 244 126 119 98 79 97 99 114 135 147 140 137 142 142 145 147 154 164 172 179 187 189
229 234 248 262 279 277 275 296 269 283 298 308 288 280 228 240 268 240 123 275 220 186 138 107 100 104 96 102 101 115 138 156 154 144 149 153 151 153 155 152 140 174 195 199